Regional Weather Roundup
Issued by NWS Charleston, SC

Current Version | Previous Version | Graphics & Text | Print | Product List | Glossary On
Versions: 1 2 3 4 5 6 7 8 9 10 11 12 13 14 15 16 17 18 19 20 21 22 23 24 25 26 27 28 29 30 31 32 33 34 35 36 37 38 39 40 41 42 43 44 45 46 47 48 49 50
000
ASUS42 KCHS 181027
RWRCHS

REGIONAL WEATHER ROUNDUP
NATIONAL WEATHER SERVICE CHARLESTON SC
600 AM EDT SAT APR 18 2015

NOTE: "FAIR" INDICATES FEW OR NO CLOUDS BELOW 12,000 FEET WITH NO
SIGNIFICANT WEATHER AND/OR OBSTRUCTIONS TO VISIBILITY.

NOT ALL STATIONS ARE QUALITY CONTROLLED BY THE NATIONAL
WEATHER SERVICE. USE DATA WITH CAUTION...ESPECIALLY
DEWPOINT OBSERVATIONS.

SCZ027-030-031-034>040-042>050-181100-
...SOUTHEAST SOUTH CAROLINA...

CITY           SKY/WX    TMP DP  RH WIND       PRES   REMARKS
N CHARLESTON   CLOUDY    66  66 100 CALM      29.97S
WATERFRONT PRK   N/A     66 N/A N/A CALM        N/A
MOUNT PLEASANT CLOUDY    66  66 100 CALM      29.97R FOG
PINOPOLIS      NOT AVBL
MONCKS CORNER  DRIZZLE   68  66  94 CALM      29.97S
SUMMERVILLE    RAIN      64  64 100 CALM      29.98S
BEAUFORT MCAS  LGT RAIN  68  67  96 CALM      29.96S FOG
BEAUFORT ARPT  CLOUDY    68  68 100 CALM      29.96S FOG
HILTON HEAD IS NOT AVBL
WALTERBORO     CLOUDY    64  64 100 CALM      29.98S FOG
ALLENDALE      CLOUDY    66  66 100 CALM      29.97S FOG

...SOUTHERN MIDLANDS AND PEE DEE...

CITY           SKY/WX    TMP DP  RH WIND       PRES   REMARKS
GEORGETOWN     NOT AVBL
KINGSTREE      NOT AVBL
ORANGEBURG     CLOUDY    65  63  93 NE3       29.98S
BARNWELL       CLOUDY    66  66 100 NE3       29.98S
AIKEN          CLOUDY    48  46  93 CALM      30.01S FOG
MANNING        LGT RAIN  64  63  94 CALM      29.98R
COLUMBIA       CLOUDY    66  63  90 CALM      29.97S
SUMTER         CLOUDY    64  64 100 CALM      29.96S
FLORENCE       LGT RAIN  66  64  93 NE3       29.97S FOG
MYRTLE BEACH   CLOUDY    66  64  94 CALM      29.97F
N MYRTLE BEACH CLOUDY    66  65  96 N3        29.96R

$$

GAZ063-065-086>088-099>101-113>116-118-119-134>141-150-181100-
...SOUTHEAST GEORGIA...

CITY           SKY/WX    TMP DP  RH WIND       PRES   REMARKS
SAVANNAH ARPT  FOG       68  66  94 SE3       29.96R VSB 1
HUNTER AAF     FOG       66  66 100 SE2       29.94R VSB 1
FORT STEWART   CLOUDY    67  66  96 CALM      29.94R
STATESBORO       N/A     67  67 100 CALM      29.96R FOG
SYLVANIA       FOG       67  67 100 CALM      29.98R VSB 3/4
CLAXTON        CLOUDY    66  66 100 CALM      29.96R FOG

...CSRA...CENTRAL AND FAR SOUTHEAST GEORGIA...

CITY           SKY/WX    TMP DP  RH WIND       PRES   REMARKS
THOMSON        CLOUDY    66  66 100 CALM      30.02R
AUGUSTA-BUSH   CLOUDY    65  64  97 E3        29.96S FOG
AUGUSTA-DANIEL CLOUDY    66  64  93 NE3       29.97F
SWAINSBORO     CLOUDY    68  68 100 SE3       29.96S
VIDALIA        HVY RAIN  68  66  94 CALM      29.96R
EASTMAN        CLOUDY    68  68 100 S3        29.97R FOG
HAZLEHURST     CLOUDY    69  69 100 SE3       29.95R
ALMA           CLOUDY    67  65  93 SE3       29.95R
WAYCROSS       CLOUDY    70  69  96 S3        29.96R
JESUP          FOG       68  68 100 CALM      29.96S VSB 3/4
BAXLEY         RAIN      68  66  94 SE3       29.95S
BRUNSWICK      CLOUDY    66  64  94 NE3       29.98R
SAINT SIMONS   MOCLDY    67  65  93 E7        29.96S

$$

SCZ027-028-034-036>038-045-046-048>050-GAZ119-141-181100-
...LAKE AND SUPPLEMENTAL COASTAL OBSERVATIONS...

STATION/POSITION TIME  TEMP    WIND        PRES    WAVE   SWELL
                       AIR SEA DIR/SP/G            HT/PER HT/PER/DIR
                 (UTC) (F)     (DEG/KT/KT) (MB)    (FT/S) (FT/S/D)
UPR LAKE MARION  NOT AVBL
WINYAH BAY       NOT AVBL
LAKE MURRAY      0900   64      CALM  /  2 1014.9R
ACE BASIN NERRS  NOT AVBL
FORT PULASKI     1000   68 71  120/  2/  3 1014.9R
SAPELO ISLAND    0900   68     140/  2     1014.0F

$$

ANZ835-935-AMZ111-154-330-350-352-354-370-450-454-472-181100-
...C-MAN AND BUOY OBSERVATIONS...

STATION/POSITION TIME  TEMP    WIND        PRES    WAVE   SWELL
                       AIR SEA DIR/SP/G            HT/PER HT/PER/DIR
                 (UTC) (F)     (DEG/KT/KT) (MB)    (FT/S) (FT/S/D)
BUOY 41004       0950   70 75  340/  6/  8 1013.2F   4/ 8   3/ 8
BUOY 41008       0950   66 66  140/  4/  4 1014.5F   3/ 9   3/ 90/ 9
FOLLY BEACH CMAN 1000   66      CALM  /  1 1014.7R
CAPERS NEARSHORE NOT AVBL
FRIPP NEARSHORE  0900   67      90/  4/  4 1014.0F


STATION/POSITION TIME  TEMP    WIND        PRES    WAVE   SWELL
                       AIR SEA DIR/SP/G            HT/PER HT/PER/DIR
                 (UTC) (F)     (DEG/KT/KT) (MB)    (FT/S) (FT/S/D)
5E ST. MARYS GA  0921      70                N/A     3/ 9
FRYING PAN BUOY  0950   72 73  330/  4/  6 1014.2R   4/ 8   3/100/ 8
BUOY 41025       0950   71 75   10/  6/  8 1014.2F   5/ 9   5/ 80/ 9
CAPE LOOKOUT NC  1000   66      30/  7/  7 1014.5R
BUOY 41002       0950   72 73  220/  8/ 10 1014.1R   6/ 9   5/ 80/ 9
BUOY 41010       0920   77 78  220/ 10/ 12 1015.0R
ST AUGUSTINE FL  1000   68 69  170/  2/  2 1015.1S


$$



USA.gov is the U.S. government's official web portal to all federal, state and local government web resources and services.